Location: Peach Mountain Observatory
(42.3967°N, 83.9367°W)
Time: 16:08:00
(UTC-05:00)

S-56A Canister/Altair - Pass Details

Date: 26 January 2020
Orbit: 633 x 2499 km, 38.9° (Epoch: 22 February)

Event Time Altitude Azimuth Distance (km) Brightness Sun altitude
Rises 20:58:09 0° 246° (WSW) 4,191 12.0 -36.2°
Reaches altitude 10° 21:01:32 10° 242° (WSW) 2,935 11.0 -36.8°
Enters shadow 21:05:00 28° 229° (SW) 1,696 9.5 -37.5°
Maximum altitude 21:07:59 51° 169° (S) 1,041 - -38.0°
Drops below altitude 10° 21:12:42 10° 94° (E) 2,159 - -38.9°
Sets 21:14:51 0° 88° (E) 2,989 - -39.3°
